• In Uzbekistan
  • List of Countries
  • For 7 days
  • Water Temperature
  • Satellite Maps
  • Weather Map
  • Weather Widgets
  • user-avatar
    Login

    Hourly Weather Adelaide

    Today, 20 August, Sunday

    Time Temperature Precipitation Wind Pressure Humidity
    00:00 +7°C° 0 mm 3 mps 766 mmHg 75%
    01:00 +7°C° 0 mm 3 mps 765 mmHg 73%
    02:00 +6°C° 0 mm 4 mps 765 mmHg 71%
    03:00 +6°C° 0 mm 4 mps 764 mmHg 69%
    04:00 +6°C° 0 mm 4 mps 764 mmHg 67%
    05:00 +6°C° 0 mm 5 mps 764 mmHg 65%
    06:00 +6°C° 0 mm 5 mps 763 mmHg 64%
    07:00 +7°C° 0 mm 6 mps 763 mmHg 60%
    08:00 +9°C° 0 mm 6 mps 763 mmHg 56%
    09:00 +10°C° 0 mm 7 mps 763 mmHg 53%
    10:00 +11°C° 0 mm 7 mps 762 mmHg 51%
    11:00 +12°C° 0 mm 7 mps 761 mmHg 49%
    12:00 +14°C° 0 mm 7 mps 760 mmHg 48%
    13:00 +14°C° 0.1 mm 7 mps 759 mmHg 50%
    14:00 +14°C° 0.1 mm 7 mps 758 mmHg 52%
    15:00 +13°C° 0.1 mm 6 mps 757 mmHg 54%
    16:00 +11°C° 0.7 mm 6 mps 757 mmHg 63%
    17:00 +10°C° 0.7 mm 6 mps 757 mmHg 72%
    18:00 +9°C° 0.7 mm 5 mps 756 mmHg 81%
    19:00 +8°C° 1.3 mm 6 mps 756 mmHg 82%
    20:00 +8°C° 1.3 mm 7 mps 756 mmHg 83%
    21:00 +7°C° 1.3 mm 8 mps 755 mmHg 84%
    22:00 +7°C° 0.1 mm 9 mps 755 mmHg 81%
    23:00 +7°C° 0.1 mm 9 mps 754 mmHg 79%

    Tomorrow, 21 August, Monday

    Time Temperature Precipitation Wind Pressure Humidity
    00:00 +7°C° 0.1 mm 9 mps 753 mmHg 77%
    01:00 +9°C° 0 mm 8 mps 752 mmHg 75%
    02:00 +9°C° 0 mm 8 mps 752 mmHg 73%
    03:00 +9°C° 0 mm 7 mps 751 mmHg 71%
    04:00 +9°C° 1.8 mm 7 mps 751 mmHg 77%
    05:00 +9°C° 1.8 mm 6 mps 751 mmHg 83%
    06:00 +9°C° 1.8 mm 6 mps 750 mmHg 90%
    07:00 +10°C° 0.7 mm 5 mps 751 mmHg 90%
    08:00 +10°C° 0.7 mm 5 mps 751 mmHg 90%
    09:00 +12°C° 0.7 mm 4 mps 752 mmHg 90%
    10:00 +13°C° 0 mm 5 mps 752 mmHg 84%
    11:00 +14°C° 0 mm 5 mps 753 mmHg 78%
    12:00 +15°C° 0 mm 6 mps 753 mmHg 71%
    13:00 +15°C° 0 mm 5 mps 753 mmHg 71%
    14:00 +15°C° 0 mm 4 mps 754 mmHg 70%
    15:00 +15°C° 0 mm 4 mps 754 mmHg 70%
    16:00 +14°C° 0 mm 4 mps 755 mmHg 75%
    17:00 +13°C° 0 mm 3 mps 756 mmHg 81%
    18:00 +12°C° 0 mm 3 mps 757 mmHg 87%
    19:00 +12°C° 0 mm 3 mps 758 mmHg 88%
    20:00 +12°C° 0 mm 4 mps 758 mmHg 89%
    21:00 +12°C° 0 mm 4 mps 759 mmHg 90%
    22:00 +11°C° 0 mm 4 mps 759 mmHg 90%
    23:00 +11°C° 0 mm 4 mps 760 mmHg 90%

    Day after tomorrow, 22 August, Tuesday

    Time Temperature Precipitation Wind Pressure Humidity
    00:00 +11°C° 0 mm 4 mps 760 mmHg 90%
    01:00 +11°C° 0 mm 4 mps 760 mmHg 89%
    02:00 +11°C° 0 mm 4 mps 760 mmHg 88%
    03:00 +11°C° 0 mm 4 mps 760 mmHg 87%
    04:00 +11°C° 0 mm 4 mps 760 mmHg 87%
    05:00 +10°C° 0 mm 3 mps 761 mmHg 87%
    06:00 +10°C° 0 mm 3 mps 761 mmHg 87%
    07:00 +11°C° 0 mm 3 mps 762 mmHg 82%
    08:00 +12°C° 0 mm 3 mps 762 mmHg 78%
    09:00 +14°C° 0 mm 4 mps 762 mmHg 73%
    10:00 +14°C° 0 mm 4 mps 762 mmHg 69%
    11:00 +15°C° 0 mm 4 mps 762 mmHg 65%
    12:00 +17°C° 0 mm 4 mps 762 mmHg 61%
    13:00 +17°C° 0 mm 4 mps 762 mmHg 62%
    14:00 +17°C° 0 mm 4 mps 762 mmHg 64%
    15:00 +17°C° 0 mm 4 mps 761 mmHg 66%
    16:00 +14°C° 0 mm 3 mps 762 mmHg 72%
    17:00 +13°C° 0 mm 3 mps 762 mmHg 78%
    18:00 +12°C° 0 mm 3 mps 762 mmHg 84%
    19:00 +12°C° 0 mm 3 mps 763 mmHg 85%
    20:00 +12°C° 0 mm 2 mps 763 mmHg 86%
    21:00 +12°C° 0 mm 2 mps 764 mmHg 88%
    22:00 +11°C° 0 mm 3 mps 763 mmHg 88%
    23:00 +11°C° 0 mm 3 mps 763 mmHg 88%

    23 August, Wednesday

    Time Temperature Precipitation Wind Pressure Humidity
    00:00 +10°C° 0 mm 3 mps 763 mmHg 89%
    01:00 +10°C° 0 mm 3 mps 763 mmHg 89%
    02:00 +10°C° 0 mm 3 mps 763 mmHg 90%
    03:00 +10°C° 0 mm 4 mps 763 mmHg 90%
    04:00 +10°C° 0 mm 4 mps 763 mmHg 90%
    05:00 +10°C° 0 mm 4 mps 763 mmHg 91%
    06:00 +10°C° 0 mm 4 mps 763 mmHg 91%
    07:00 +11°C° 0 mm 4 mps 763 mmHg 86%
    08:00 +12°C° 0 mm 5 mps 764 mmHg 82%
    09:00 +14°C° 0 mm 5 mps 764 mmHg 77%
    10:00 +14°C° 0.1 mm 5 mps 764 mmHg 73%
    11:00 +15°C° 0.1 mm 5 mps 763 mmHg 68%
    12:00 +16°C° 0.1 mm 5 mps 763 mmHg 63%
    13:00 +16°C° 0.2 mm 5 mps 763 mmHg 65%
    14:00 +16°C° 0.2 mm 5 mps 763 mmHg 66%
    15:00 +16°C° 0.2 mm 5 mps 763 mmHg 67%
    16:00 +15°C° 0.1 mm 5 mps 763 mmHg 73%
    17:00 +13°C° 0.1 mm 4 mps 764 mmHg 79%
    18:00 +12°C° 0.1 mm 3 mps 764 mmHg 85%
    19:00 +12°C° 0 mm 3 mps 765 mmHg 87%
    20:00 +11°C° 0 mm 3 mps 765 mmHg 88%
    21:00 +11°C° 0 mm 3 mps 765 mmHg 89%
    22:00 +10°C° 0 mm 3 mps 765 mmHg 89%
    23:00 +10°C° 0 mm 2 mps 765 mmHg 89%

    24 August, Thursday

    Time Temperature Precipitation Wind Pressure Humidity
    00:00 +10°C° 0 mm 2 mps 765 mmHg 89%
    01:00 +9°C° 0 mm 2 mps 765 mmHg 88%
    02:00 +9°C° 0 mm 2 mps 765 mmHg 88%
    03:00 +9°C° 0 mm 2 mps 765 mmHg 87%
    04:00 +9°C° 0 mm 2 mps 766 mmHg 87%
    05:00 +8°C° 0 mm 2 mps 766 mmHg 87%
    06:00 +8°C° 0 mm 2 mps 766 mmHg 87%
    07:00 +9°C° 0 mm 2 mps 766 mmHg 82%
    08:00 +11°C° 0 mm 1 mps 767 mmHg 76%
    09:00 +13°C° 0 mm 1 mps 767 mmHg 71%
    10:00 +13°C° 0 mm 1 mps 767 mmHg 67%
    11:00 +14°C° 0 mm 1 mps 766 mmHg 63%
    12:00 +14°C° 0 mm 1 mps 766 mmHg 59%
    13:00 +14°C° 0 mm 1 mps 765 mmHg 59%
    14:00 +14°C° 0 mm 1 mps 765 mmHg 59%
    15:00 +14°C° 0 mm 2 mps 765 mmHg 58%
    16:00 +13°C° 0 mm 2 mps 765 mmHg 62%
    17:00 +12°C° 0 mm 2 mps 765 mmHg 67%
    18:00 +10°C° 0 mm 2 mps 766 mmHg 71%
    19:00 +10°C° 0 mm 1 mps 766 mmHg 74%
    20:00 +9°C° 0 mm 1 mps 766 mmHg 76%
    21:00 +9°C° 0 mm 1 mps 766 mmHg 79%
    22:00 +8°C° 0 mm 1 mps 766 mmHg 80%
    23:00 +8°C° 0 mm 1 mps 766 mmHg 81%

    25 August, Friday

    Time Temperature Precipitation Wind Pressure Humidity
    00:00 +8°C° 0 mm 1 mps 766 mmHg 82%
    01:00 +8°C° 0 mm 1 mps 765 mmHg 82%
    02:00 +7°C° 0 mm 1 mps 765 mmHg 83%
    03:00 +7°C° 0 mm 1 mps 765 mmHg 83%
    04:00 +7°C° 0 mm 1 mps 765 mmHg 84%
    05:00 +7°C° 0 mm 1 mps 766 mmHg 84%
    06:00 +7°C° 0 mm 1 mps 766 mmHg 84%
    07:00 +9°C° 0 mm 1 mps 766 mmHg 79%
    08:00 +9°C° 0 mm 2 mps 767 mmHg 74%
    09:00 +12°C° 0 mm 2 mps 767 mmHg 69%
    10:00 +13°C° 0 mm 2 mps 767 mmHg 65%
    11:00 +13°C° 0 mm 3 mps 766 mmHg 61%
    12:00 +14°C° 0 mm 3 mps 766 mmHg 57%
    13:00 +14°C° 0 mm 4 mps 766 mmHg 58%
    14:00 +14°C° 0 mm 4 mps 766 mmHg 59%
    15:00 +14°C° 0 mm 4 mps 765 mmHg 60%
    16:00 +13°C° 0 mm 4 mps 766 mmHg 66%
    17:00 +11°C° 0 mm 3 mps 766 mmHg 72%
    18:00 +10°C° 0 mm 3 mps 766 mmHg 78%
    19:00 +10°C° 0.1 mm 3 mps 767 mmHg 81%
    20:00 +10°C° 0.1 mm 3 mps 767 mmHg 83%
    21:00 +10°C° 0.1 mm 4 mps 767 mmHg 86%
    22:00 +10°C° 0.3 mm 4 mps 767 mmHg 86%
    23:00 +10°C° 0.3 mm 4 mps 767 mmHg 87%
    Show more